Satellite-Ground Cal/Val Site Overpasses Predictions

Prediction of Satellite NPP Overpassing Cal/Val Site: Antarctic Dome C

Ground Cal/Val Site Location: Latitude: -75.10, Longitude: 123.35; Satellite-Ground Site NADIR distance within 100 km.

Table of predicted overpasses for the next 14.0 days since TLE Epoch: 2/11/2016
Interval Starting Time Ending Time Minimum Distance Time Minimum Distance (km)
1 02/12/2016 14:56:23 02/12/2016 14:56:52 02/12/2016 14:56:38 18.64
2 02/13/2016 14:37:41 02/13/2016 14:37:55 02/13/2016 14:37:48 88.41
3 02/14/2016 07:39:12 02/14/2016 07:39:39 02/14/2016 07:39:25 36.99
4 02/15/2016 07:20:25 02/15/2016 07:20:45 02/15/2016 07:20:35 73.17
5 02/17/2016 15:02:37 02/17/2016 15:03:01 02/17/2016 15:02:49 55.33
6 02/18/2016 14:43:45 02/18/2016 14:44:10 02/18/2016 14:43:57 53.90
7 02/19/2016 07:45:26 02/19/2016 07:45:46 02/19/2016 07:45:36 71.94
8 02/20/2016 07:26:32 02/20/2016 07:26:59 02/20/2016 07:26:46 36.28
9 02/22/2016 15:08:54 02/22/2016 15:09:05 02/22/2016 15:08:59 92.65
10 02/23/2016 14:49:53 02/23/2016 14:50:22 02/23/2016 14:50:08 18.78


NCC Satellite Cal/Val Overpasses Prediction Service
